St. Joseph, KS

3:05 AM CST on December 11, 2019 (GMT -0600)
Rosecrans Memorial

Weather History for KSTJ - October, 2019

Change the Weather History Date:

Thursday, October 17, 2019

  Actual Average Record
Temperature  
Mean Temperature 53 °F 54 °F  
Max Temperature 69 °F 67 °F 89 °F (1991)
Min Temperature 37 °F 42 °F 24 °F (1969)
Degree Days  
Heating Degree Days 12 11  
Month to date heating degree days 169 147  
Since 1 July heating degree days 174 227  
Cooling Degree Days 0 0  
Month to date cooling degree days 17 18  
Year to date cooling degree days 1466 1217  
Growing Degree Days 2 (Base 50)    
Moisture  
Dew Point 40 °F    
Average Humidity 70    
Maximum Humidity 100    
Minimum Humidity 39    
Precipitation  
Precipitation 0.00 in 0.09 in 1.67 in (1898)
Month to date precipitation 2.35 1.59  
Year to date precipitation 35.95 31.31  
Sea Level Pressure  
Sea Level Pressure 29.98 in    
Wind  
Wind Speed 8 mph (SSE)    
Max Wind Speed 17 mph    
Max Gust Speed 23 mph    
Visibility 7 miles    
Events      
T = Trace of Precipitation, MM = Missing Value Source: NWS Daily Summary

Daily Weather History Graph

Daily Weather History Graph

Search for Another Location

Airport or City:

Astronomy

Oct. 17, 2019 Rise Set
Actual Time 7:31 AM CDT 6:37 PM CDT
Civil Twilight 7:04 AM CDT 7:04 PM CDT
Nautical Twilight 6:33 AM CDT 7:36 PM CDT
Astronomical Twilight 6:01 AM CDT 8:07 PM CDT
Moon 9:10 PM CDT (10/17) 11:04 AM CDT (10/17)
Length of Visible Light 12h 00m
Length of Day
11h 05m
Waning Gibbous, 86% of the Moon is Illuminated
Oct 17
Waning Gibbous
Oct 21
Last Quarter
Oct 27
New
Nov 4
First Quarter
Nov 12
Full

Hourly Weather History & Observations

Time (CDT) Temp. Windchill Dew Point Humidity Pressure Visibility Wind Dir Wind Speed Gust Speed Precip Events Conditions
12:53 AM 39.0 °F - 36.0 °F 89% 30.08 in 2.5 mi Calm Calm - N/A   Clear
1:49 AM 37.4 °F - 35.6 °F 93% 30.06 in 2.5 mi Calm Calm - N/A   Clear
1:53 AM 37.9 °F - 36.0 °F 93% 30.06 in 2.5 mi Calm Calm - N/A   Clear
2:09 AM 39.0 °F - 36.0 °F 89% 30.06 in 4.0 mi Calm Calm - N/A   Clear
2:53 AM 37.9 °F - 35.1 °F 89% 30.06 in 3.0 mi Calm Calm - N/A   Clear
3:04 AM 37.9 °F - 35.1 °F 89% 30.06 in 2.5 mi Calm Calm - N/A   Clear
3:18 AM 37.9 °F - 35.1 °F 89% 30.05 in 3.0 mi Calm Calm - N/A   Clear
3:27 AM 37.0 °F - 35.1 °F 93% 30.05 in 2.5 mi Calm Calm - N/A   Clear
3:53 AM 37.0 °F - 35.1 °F 93% 30.05 in 4.0 mi Calm Calm - N/A   Clear
5:42 AM 39.0 °F - 37.0 °F 93% 30.04 in 2.5 mi Calm Calm - N/A   Clear
5:51 AM 39.2 °F 37.0 °F 37.4 °F 93% 30.04 in 4.0 mi SE 3.5 mph - N/A   Clear
5:53 AM 37.9 °F 35.5 °F 37.0 °F 97% 30.04 in 4.0 mi SE 3.5 mph - N/A   Clear
6:53 AM 39.9 °F 35.8 °F 37.0 °F 89% 30.04 in 6.0 mi SSE 5.8 mph - N/A   Clear
7:53 AM 41.0 °F 36.4 °F 37.9 °F 89% 30.05 in 6.0 mi SSE 6.9 mph - N/A   Clear
8:53 AM 46.9 °F - 42.1 °F 83% 30.03 in 10.0 mi South 6.9 mph - N/A   Clear
9:53 AM 52.0 °F - 42.1 °F 69% 30.03 in 10.0 mi SSE 8.1 mph - N/A   Clear
10:53 AM 57.0 °F - 42.1 °F 57% 30.01 in 10.0 mi South 11.5 mph - N/A   Clear
11:53 AM 61.0 °F - 42.1 °F 50% 29.98 in 10.0 mi South 11.5 mph - N/A   Clear
12:53 PM 64.0 °F - 39.9 °F 41% 29.96 in 10.0 mi SSE 15.0 mph 21.9 mph N/A   Clear
1:53 PM 66.9 °F - 42.1 °F 40% 29.93 in 10.0 mi South 11.5 mph - N/A   Clear
2:53 PM 66.9 °F - 43.0 °F 42% 29.90 in 10.0 mi SE 12.7 mph - N/A   Clear
3:53 PM 68.0 °F - 43.0 °F 40% 29.88 in 10.0 mi SSE 11.5 mph 21.9 mph N/A   Clear
4:53 PM 66.9 °F - 43.0 °F 42% 29.86 in 10.0 mi SSE 13.8 mph - N/A   Clear
5:53 PM 64.9 °F - 44.1 °F 47% 29.86 in 10.0 mi SSE 10.4 mph - N/A   Clear
6:53 PM 60.1 °F - 45.0 °F 57% 29.86 in 10.0 mi SE 8.1 mph - N/A   Clear
7:53 PM 57.0 °F - 45.0 °F 64% 29.86 in 10.0 mi SE 9.2 mph - N/A   Clear
8:53 PM 55.9 °F - 45.0 °F 67% 29.86 in 10.0 mi SE 10.4 mph - N/A   Clear
9:53 PM 55.9 °F - 45.0 °F 67% 29.85 in 10.0 mi SE 11.5 mph - N/A   Clear
10:53 PM 55.0 °F - 45.0 °F 69% 29.86 in 10.0 mi SSE 9.2 mph - N/A   Clear
11:53 PM 53.1 °F - 45.0 °F 74% 29.85 in 10.0 mi SE 6.9 mph - N/A   Clear